CAPE
0 0 0 0 0 0 0 0 0 0 0 0 0 0 0 0 0 0 0 0 0 1 0 0 0 0 0 0 0 0 0 0 0 0 0 0 0 0 0 0 0 0 0 0 0 0 0
0 0 0 0 0 0 0 0 0 0 0 0 0 0 0 0 0 0 0 0 0 0 0 0 0 0 0 0 0 0 0 0 0 0 0 0 0 0 0 0 0 0 0 0 0 0 0
0 0 0 0 0 0 0 0 0 0 0 0 0 0 0 0 0 0 0 0 0 0 0 0 0 0 0 0 0 0 0 0 0 0 0 0 0 0 0 0 0 0 0 0 0 0 0
0 0 0 0 0 0 0 0 0 0 0 0 0 0 0 0 0 0 0 0 0 0 0 0 0 0 0 0 0 0 0 0 0 0 0 0 0 0 0 0 0 0 0 0 0 0 0
0 0 0 0 0 0 0 0 0 0 0 0 0 0 0 0 0 0 0 0 0 0 0 0 0 0 0 0 0 0 0 0 0 0 0 0 0 0 0 0 0 0 0 0 0 0 0
0 0 0 0 0 0 0 0 0 0 0 0 0 0 0 0 0 0 0 0 0 0 0 0 0 0 0 0 0 0 0 0 0 0 0 0 0 0 0 0 0 0 0 0 0 0 0
0 0 0 0 0 0 0 0 0 0 0 0 0 0 0 0 0 0 0 0 0 0 0 0 0 0 0 0 0 0 0 0 0 0 0 0 0 0 0 0 0 0 0 0 0 0 0
0 0 0 0 0 0 0 0 0 0 0 0 0 0 0 0 0 0 0 0 0 0 0 0 0 0 0 0 0 0 0 0 0 0 0 0 0 0 0 0 0 0 0 0 0 0 0
0 0 0 0 0 0 0 0 0 0 0 0 0 0 0 0 0 0 0 0 0 0 0 0 0 0 0 0 0 0 0 0 0 0 0 0 0 0 0 0 0 0 0 0 0 0 0
0 0 0 0 0 0 0 0 0 0 0 0 0 0 0 0 0 0 0 0 0 0 0 0 0 0 0 0 0 0 0 0 0 0 0 0 0 0 0 0 0 0 0 0 0 0 0
0 0 0 0 0 0 0 0 0 0 0 0 0 0 0 0 0 0 0 0 0 0 0 0 0 0 0 0 0 0 0 0 0 0 0 0 0 0 0 0 0 0 0 0 0 0 0
0 0 0 0 0 0 0 0 0 0 0 0 0 0 0 0 0 0 0 0 0 0 0 0 0 0 0 0 0 0 0 0 0 0 0 0 0 0 0 0 0 0 0 0 0 0 0
0 0 0 0 0 0 0 0 0 0 0 0 0 0 0 0 0 0 0 0 0 0 0 0 0 0 0 0 0 0 0 0 0 0 0 0 0 0 0 0 0 0 0 0 0 0 0
0 0 0 0 0 0 0 0 0 0 0 0 0 0 0 0 0 0 0 0 0 0 0 0 0 0 0 0 0 0 0 0 0 0 0 0 0 0 0 0 0 0 0 0 0 0 0
0 0 0 0 0 0 0 0 0 0 0 0 0 0 0 0 0 0 0 0 0 0 0 0 0 0 0 0 0 0 0 0 0 0 0 0 0 0 0 0 0 0 0 0 0 0 0
0 0 0 0 0 0 0 0 0 0 0 0 0 0 0 0 0 0 0 0 0 0 0 0 0 0 0 0 0 0 0 0 0 0 0 0 0 0 0 0 0 0 0 0 0 0 0
0 0 0 0 0 0 0 0 0 0 0 0 0 0 0 0 0 0 0 0 0 0 0 0 0 0 0 0 0 0 0 0 0 0 0 0 0 0 0 0 0 0 0 0 0 0 0
0 0 0 0 0 0 0 0 0 0 0 0 0 0 0 0 0 0 0 0 0 0 0 0 0 0 0 0 0 0 0 0 0 0 0 0 0 0 0 0 0 0 0 0 0 0 0
0 0 0 0 0 0 0 0 0 0 0 0 0 0 0 0 0 0 0 0 0 0 0 0 0 0 0 0 0 0 0 0 0 0 0 0 0 0 0 0 0 0 0 0 0 0 0
0 0 0 0 0 0 0 0 0 0 0 0 0 0 0 0 0 0 0 0 0 0 0 0 0 0 0 0 0 0 0 0 0 0 1 0 0 0 0 0 0 0 0 0 0 0 0
0 0 0 0 0 0 0 0 0 0 0 0 0 0 0 0 0 0 0 0 0 0 0 0 0 0 0 0 0 0 0 0 0 0 0 0 0 0 0 0 0 0 0 0 0 0 0
0 0 0 0 0 0 0 0 0 0 0 0 0 0 0 0 0 0 0 0 0 0 0 0 0 0 0 0 0 0 0 0 0 0 0 0 0 0 0 0 0 0 0 0 0 0 0
0 0 0 0 0 0 0 0 0 0 0 0 0 0 0 0 0 0 0 0 0 0 0 0 0 0 0 0 0 0 0 0 0 0 0 0 0 0 0 0 0 0 0 0 0 0 0
0 0 0 0 0 0 0 0 0 0 0 0 0 0 0 0 0 0 0 0 0 0 0 0 0 0 0 0 0 0 0 0 0 0 0 0 0 0 0 0 0 0 0 0 0 0 0
0 0 0 0 0 0 0 0 0 0 0 0 0 0 0 0 0 0 0 0 0 0 0 0 0 0 0 0 0 0 0 0 0 0 0 0 0 0 0 0 0 0 0 0 0 0 0
3 0 0 0 0 0 0 0 0 0 0 0 0 0 0 0 0 0 0 0 0 0 0 0 0 0 0 0 0 0 0 0 0 0 0 0 0 0 0 0 0 0 0 0 0 0 0
5 0 0 0 0 0 0 0 0 0 0 0 0 0 0 0 0 0 0 0 0 0 0 0 0 0 0 0 0 0 0 0 0 0 0 0 0 0 0 0 0 0 0 0 0 0 0
8 2 0 0 0 0 0 0 0 0 0 0 0 0 0 0 0 0 0 0 0 0 0 0 0 0 0 0 0 0 0 0 0 0 0 0 0 0 0 0 0 0 0 0 0 0 0
9 4 1 0 0 0 0 0 0 0 0 0 0 0 0 0 0 0 0 0 0 0 0 0 0 0 0 0 0 0 0 0 0 0 0 0 0 0 0 0 0 0 0 0 0 1 3
CIN
0 0 0 0 0 0 0 0 0 0 0 0 0 0 0 0 0 0 0 0 0 0 0 0 0 0 0 0 0 0 0 0 0 0 0 0 0 0 0 0 0 0 0 0 0 0 0
0 0 0 0 0 0 0 0 0 0 0 0 0 0 0 0 0 0 0 0 0 0 0 0 0 0 0 0 0 0 0 0 0 0 0 0 0 0 0 0 0 0 0 0 0 0 0
0 0 0 0 0 0 0 0 0 0 0 0 0 0 0 0 0 0 0 0 0 0 0 0 0 0 0 0 0 0 0 0 0 0 0 0 0 0 0 0 0 0 0 0 0 0 0
0 0 0 0 0 0 0 0 0 0 0 0 0 0 0 0 0 0 0 0 0 0 0 0 0 0 0 0 0 0 0 0 0 0 0 0 0 0 0 0 0 0 0 0 0 0 0
0 0 0 0 0 0 0 0 0 0 0 0 0 0 0 0 0 0 0 0 0 0 0 0 0 0 0 0 0 0 0 0 0 0 0 0 0 0 0 0 0 0 0 0 0 0 0
0 0 0 0 0 0 0 0 0 0 0 0 0 0 0 0 0 0 0 0 0 0 0 0 0 0 0 0 0 0 0 0 0 0 0 0 0 0 0 0 0 0 0 0 0 0 0
0 0 0 0 0 0 0 0 0 0 0 0 0 0 0 0 0 0 0 0 0 0 0 0 0 0 0 0 0 0 0 0 0 0 0 0 0 0 0 0 0 0 0 0 0 0 0
0 0 0 0 0 0 0 0 0 0 0 0 0 0 0 0 0 0 0 0 0 0 0 0 0 0 0 0 0 0 0 0 0 0 0 0 0 0 0 0 0 0 0 0 0 0 0
0 0 0 0 0 0 0 0 0 0 0 0 0 0 0 0 0 0 0 0 0 0 0 0 0 0 0 0 0 0 0 0 0 0 0 0 0 0 0 0 0 0 0 0 0 0 0
0 0 0 0 0 0 0 0 0 0 0 0 0 0 0 0 0 0 0 0 0 0 0 0 0 0 0 0 0 0 0 0 0 0 0 0 0 0 0 0 0 0 0 0 0 0 0
0 0 0 0 0 0 0 0 0 0 0 0 0 0 0 0 0 0 0 0 0 0 0 0 0 0 0 0 0 0 0 0 0 0 0 0 0 0 0 0 0 0 0 0 0 0 0
0 0 0 0 0 0 0 0 0 0 0 0 0 0 0 0 0 0 0 0 0 0 0 0 0 0 0 0 0 0 0 0 0 0 0 0 0 0 0 0 0 0 0 0 0 0 0
0 0 0 0 0 0 0 0 0 0 0 0 0 0 0 0 0 0 0 0 0 0 0 0 0 0 0 0 0 0 0 0 0 0 0 0 0 0 0 0 0 0 0 0 0 0 0
0 0 0 0 0 0 0 0 0 0 0 0 0 0 0 0 0 0 0 0 0 0 0 0 0 0 0 0 0 0 0 0 0 0 0 0 0 0 0 0 0 0 0 0 0 0 0
0 0 0 0 0 0 0 0 0 0 0 0 0 0 0 0 0 0 0 0 0 0 0 0 0 0 0 0 0 0 0 0 0 0 0 0 0 0 0 0 0 0 0 0 0 0 0
0 0 0 0 0 0 0 0 0 0 0 0 0 0 0 0 0 0 0 0 0 0 0 0 0 0 0 0 0 0 0 0 0 0 0 0 0 0 0 0 0 0 0 0 0 0 0
0 0 0 0 0 0 0 0 0 0 0 0 0 0 0 0 0 0 0 0 0 0 0 0 0 0 0 0 0 0 0 0 0 0 0 0 0 0 0 0 0 0 0 0 0 0 0
0 0 0 0 0 0 0 0 0 0 0 0 0 0 0 0 0 0 0 0 0 0 0 0 0 0 0 0 0 0 0 0 0 0 0 0 0 0 0 0 0 0 0 0 0 0 0
0 0 0 0 0 0 0 0 0 0 0 0 0 0 0 0 0 0 0 0 0 0 0 0 0 0 0 0 0 0 0 0 0 0 0 0 0 0 0 0 0 0 0 0 0 0 0
0 0 0 0 0 0 0 0 0 0 0 0 0 0 0 0 0 0 0 0 0 0 0 0 0 0 0 0 0 0 0 0 0 0 -1 0 0 0 0 0 0 0 0 0 0 0 0
0 0 0 0 0 0 0 0 0 0 0 0 0 0 0 0 0 0 0 0 0 0 0 0 0 0 0 0 0 0 0 0 0 0 0 0 0 0 0 0 0 0 0 0 0 0 0
0 0 0 0 0 0 0 0 0 0 0 0 0 0 0 0 0 0 0 0 0 0 0 0 0 0 0 0 0 0 0 0 0 0 0 0 0 0 0 0 0 0 0 0 0 0 0
0 0 0 0 0 0 0 0 0 0 0 0 0 0 0 0 0 0 0 0 0 0 0 0 0 0 0 0 0 0 0 0 0 0 0 0 0 0 0 0 0 0 0 0 0 0 0
0 0 0 0 0 0 0 0 0 0 0 0 0 0 0 0 0 0 0 0 0 0 0 0 0 0 0 0 0 0 0 0 0 0 0 0 0 0 0 0 0 0 0 0 0 0 0
0 0 0 0 0 0 0 0 0 0 0 0 0 0 0 0 0 0 0 0 0 0 0 0 0 0 0 0 0 0 0 0 0 0 0 0 0 0 0 0 0 0 0 0 0 0 0
0 0 0 0 0 0 0 0 0 0 0 0 0 0 0 0 0 0 0 0 0 0 0 0 0 0 0 0 0 0 0 0 0 0 0 0 0 0 0 0 0 0 0 0 0 0 0
0 0 0 0 0 0 0 0 0 0 0 0 0 0 0 0 0 0 0 0 0 0 0 0 0 0 0 0 0 0 0 0 0 0 0 0 0 0 0 0 0 0 0 0 0 0 0
0 0 0 0 0 0 0 0 0 0 0 0 0 0 0 0 0 0 0 0 0 0 0 0 0 0 0 0 0 0 0 0 0 0 0 0 0 0 0 0 0 0 0 0 0 0 0
0 0 0 0 0 0 0 0 0 0 0 0 0 0 0 0 0 0 0 0 0 0 0 0 0 0 0 0 0 0 0 0 0 0 0 0 0 0 0 0 0 0 0 0 0 0 0
Wind_Speed
13 13 14 15 16 16 17 18 18 18 19 20 20 20 20 19 18 18 16 15 13 9 9 8 5 4 1 7 4 6 13 11 5 4 4 3 2 1 2 1 4 4 4 5 7 12 5
13 13 14 15 16 16 17 18 18 19 19 20 20 20 20 19 18 17 16 14 11 7 7 7 5 3 1 8 5 9 9 7 5 4 5 5 2 2 3 2 2 3 4 8 9 10 5
13 14 14 15 16 16 17 18 18 19 20 21 21 20 20 20 19 17 16 14 10 6 6 7 9 3 15 6 4 7 9 4 5 3 4 2 2 4 2 5 3 5 5 6 6 11 9
12 13 14 15 16 17 18 18 19 20 20 21 21 21 20 20 20 18 17 14 7 4 6 7 8 3 6 3 6 12 9 5 6 4 1 3 1 1 1 4 6 4 4 3 10 18 9
12 12 13 15 16 17 18 19 20 20 20 20 21 21 20 21 21 19 18 7 1 1 4 5 4 5 3 5 11 12 6 5 7 4 5 2 4 5 9 5 4 8 4 6 2 13 9
11 12 13 15 16 17 18 19 20 21 21 22 22 22 20 20 20 17 11 5 4 2 1 1 2 7 8 5 5 12 6 7 4 6 6 8 8 6 6 9 5 6 6 5 1 10 12
11 12 14 15 16 17 19 20 21 21 22 22 23 21 19 18 18 14 5 4 6 8 10 6 1 7 3 2 12 15 9 7 7 10 7 6 12 5 7 6 4 2 3 4 3 8 7
11 12 13 15 16 18 19 20 20 21 21 22 22 21 19 17 9 16 5 6 2 1 7 5 6 7 6 3 10 23 17 8 8 6 8 8 7 5 4 10 6 5 4 6 7 14 7
10 12 13 14 16 18 19 20 21 21 22 22 21 19 18 19 2 6 6 4 5 1 5 4 4 5 6 16 8 17 12 6 8 8 13 9 4 8 9 12 15 4 5 10 12 11 12
10 12 14 15 16 18 19 21 21 22 22 22 21 20 19 14 7 2 4 7 4 1 5 8 7 8 11 7 7 13 8 5 8 6 3 8 6 7 12 13 10 6 9 14 17 11 1
10 11 13 15 17 18 19 20 21 21 20 20 19 18 16 12 3 4 4 4 3 3 4 6 5 3 8 9 4 21 6 6 5 6 2 2 6 11 11 12 9 6 15 15 17 10 2
10 12 13 15 16 18 19 20 20 21 19 19 19 15 11 5 4 1 3 2 3 6 4 4 4 6 6 8 5 7 14 6 2 4 6 3 4 3 3 9 5 11 9 11 3 1 3
9 12 13 15 17 18 19 20 20 21 20 18 18 12 4 1 3 2 1 3 6 6 3 5 4 6 5 7 6 6 11 16 7 6 7 6 3 3 3 6 10 14 9 4 7 6 2
8 11 13 15 17 18 19 20 21 22 21 19 15 3 3 4 3 2 2 5 4 2 3 3 4 4 6 8 4 8 4 4 7 4 2 5 5 6 8 3 7 8 3 2 3 2 6
7 9 12 14 16 18 20 22 22 21 20 20 7 3 3 7 1 2 5 8 2 2 3 6 1 5 4 4 2 4 4 3 3 5 4 4 5 5 7 3 4 7 4 2 4 4 2
5 8 11 14 16 19 21 22 23 22 20 13 2 2 3 10 2 5 9 5 2 3 3 2 3 5 5 6 6 5 5 4 2 4 0 1 4 2 7 5 5 2 5 4 1 3 5
4 7 10 13 16 18 20 21 22 23 19 3 4 4 4 8 5 9 6 4 4 4 3 5 2 3 3 3 1 1 4 1 4 6 3 1 2 6 3 3 2 5 5 3 3 1 2
3 6 9 13 15 17 19 21 22 21 18 8 3 3 5 4 8 3 4 3 3 4 6 5 4 3 1 1 3 2 2 3 6 3 4 2 1 4 5 2 4 5 1 1 1 6 2
1 4 8 11 14 16 18 19 21 19 9 3 3 2 5 4 5 3 3 4 4 4 5 3 3 4 2 2 1 2 2 3 4 4 2 2 2 4 7 2 5 4 4 3 4 1 1
2 2 6 9 12 15 17 19 20 18 4 5 4 4 6 7 2 6 5 3 3 4 3 4 3 4 4 3 4 1 4 1 5 3 13 3 2 5 5 9 3 2 3 6 3 2 4
4 1 4 7 11 14 17 19 20 19 8 5 4 2 3 3 5 5 4 2 3 2 2 4 3 4 2 2 3 2 2 4 3 7 7 4 2 2 7 5 2 1 1 4 3 3 3
7 3 3 6 9 13 16 18 20 19 4 7 3 4 4 3 2 4 4 2 2 2 2 2 3 1 1 3 3 2 2 1 1 5 6 3 3 4 5 3 4 2 4 2 6 6 7
9 5 3 5 9 12 15 17 20 20 5 4 0 2 6 3 2 3 1 4 3 6 3 4 2 1 0 3 5 6 7 4 2 1 2 2 2 3 5 1 1 3 3 5 8 6 3
11 7 3 5 7 11 13 15 18 19 10 5 2 4 5 2 3 2 2 3 3 2 4 2 2 2 3 3 2 3 2 3 3 4 3 2 1 2 4 4 3 3 5 5 10 2 3
14 10 6 5 7 9 11 13 14 18 15 6 2 4 4 4 4 4 4 4 4 5 2 2 1 1 5 3 1 3 3 3 3 3 2 2 3 2 0 2 2 3 4 7 7 9 5
18 13 9 6 7 8 9 12 13 9 9 6 3 1 5 7 2 3 4 2 3 1 4 2 2 3 4 0 1 2 3 1 1 5 3 3 5 4 2 1 4 2 7 10 6 5 7
20 16 12 8 7 8 8 9 10 12 15 6 3 3 6 6 3 2 3 4 4 3 1 3 5 6 3 2 1 2 2 1 1 1 4 4 3 2 3 3 6 4 11 8 3 6 16
22 18 15 11 9 8 7 7 9 12 12 6 2 4 5 5 3 3 3 3 3 3 4 3 4 4 4 3 2 1 2 1 3 1 2 3 2 2 2 3 6 6 5 2 5 9 13
23 20 16 13 10 9 9 8 8 8 10 6 5 3 4 8 4 1 3 2 4 2 5 1 4 2 4 4 1 2 1 2 4 2 3 2 5 4 7 4 2 5 1 1 7 10 10
Wind_Direction
33 28 24 19 16 10 6 3 1 357 355 353 352 350 347 344 344 343 339 341 344 355 358 9 10 360 291 52 48 302 327 335 344 9 36 22 35 135 254 243 326 226 280 322 301 296 256
28 25 20 16 14 8 5 2 359 355 353 352 351 348 344 340 340 339 334 336 341 351 351 351 1 334 3 73 301 332 332 337 1 18 8 34 20 304 284 276 174 342 302 288 292 286 302
26 22 17 13 10 6 3 0 357 354 352 351 349 346 342 339 338 336 331 330 331 332 340 341 357 12 65 67 2 344 356 331 345 6 1 345 11 26 340 317 330 276 297 334 340 345 37
26 20 15 10 7 3 0 358 356 353 351 350 348 345 342 338 337 336 329 319 309 308 337 341 346 30 88 62 2 10 348 332 357 344 285 290 3 63 20 316 342 308 56 5 50 22 355
22 18 13 8 4 1 359 356 354 350 349 349 347 346 343 339 336 337 336 359 71 322 319 328 25 86 47 335 24 340 3 327 317 352 348 351 44 60 10 354 352 16 342 344 3 48 7
18 14 10 6 2 358 357 356 352 350 349 348 348 346 345 341 335 338 342 48 32 73 353 316 70 55 8 19 328 335 349 2 24 343 14 31 37 51 22 22 336 319 319 342 61 352 356
16 11 7 4 359 356 356 354 352 350 349 348 347 346 343 346 335 349 20 20 22 358 31 91 345 118 99 247 43 352 346 345 25 53 11 31 55 56 31 13 323 291 277 307 11 2 352
11 9 5 359 357 356 355 353 351 350 349 347 347 345 342 340 331 10 60 69 87 150 73 39 71 72 38 82 19 358 350 51 36 32 344 44 76 37 44 26 2 15 358 345 310 349 334
6 3 2 359 357 355 353 351 350 349 349 348 346 345 344 339 90 33 60 52 321 329 99 29 58 39 69 68 34 338 5 11 37 40 52 80 7 55 30 30 11 347 30 335 301 307 249
4 1 357 357 356 354 353 351 350 349 348 346 347 346 347 343 46 348 42 328 337 357 82 339 357 5 359 116 69 6 7 9 42 16 39 76 359 45 31 25 357 319 354 316 303 320 320
359 357 355 355 355 353 351 349 348 346 345 345 347 344 353 34 149 58 277 320 328 49 25 335 20 22 21 83 289 357 316 31 55 6 32 46 46 29 30 350 334 293 311 295 298 289 21
356 354 354 354 354 352 349 347 346 345 344 344 344 341 351 25 40 173 307 327 69 52 257 0 37 6 40 33 66 60 17 37 79 67 47 73 352 49 348 324 306 303 328 307 317 94 51
353 352 352 353 352 349 347 345 344 344 342 341 338 335 19 53 305 310 5 61 38 106 344 355 347 5 79 4 36 32 42 46 42 10 15 330 26 1 35 346 324 352 346 352 4 10 283
349 350 352 350 349 347 345 344 343 344 340 335 334 9 351 94 311 127 72 50 79 59 7 5 3 33 58 14 48 12 47 46 21 31 37 17 342 20 344 336 307 314 353 102 237 280 280
345 350 352 350 348 347 346 345 345 343 339 338 343 359 36 335 355 93 75 49 65 4 305 339 354 62 30 356 27 68 52 37 29 12 90 10 287 332 353 351 0 325 7 261 246 219 256
339 349 352 350 350 349 348 345 345 343 341 349 59 53 354 332 20 62 69 110 94 18 342 27 70 43 21 4 33 30 13 327 10 30 201 109 284 277 327 2 0 40 318 11 2 339 308
336 349 352 353 353 351 349 347 346 344 342 352 53 50 274 342 43 49 90 104 112 45 32 17 63 59 70 20 352 61 349 290 350 336 24 102 136 298 14 41 277 354 3 333 249 300 186
326 347 357 359 355 354 353 347 348 346 343 45 69 32 321 13 55 42 55 68 87 9 23 51 83 77 81 29 14 74 93 348 358 315 344 289 194 278 272 230 143 110 273 283 286 310 287
289 355 3 5 358 356 354 350 349 348 14 101 77 308 330 46 81 67 64 59 66 40 34 39 60 46 27 15 349 78 49 14 351 349 330 300 338 347 345 27 355 76 357 303 249 277 237
209 32 12 13 1 359 354 351 352 351 19 83 81 24 350 42 45 107 120 100 111 36 62 65 71 56 44 35 26 106 358 327 330 332 15 9 177 161 207 247 223 237 28 354 28 56 289
181 92 31 20 9 3 1 356 356 354 345 82 27 137 174 17 19 89 89 95 115 86 87 39 78 66 23 328 3 22 15 330 332 10 7 62 257 237 261 261 109 84 103 35 8 234 264
169 152 57 25 24 13 9 1 2 4 46 78 100 123 32 81 95 69 15 61 125 115 49 56 85 15 273 217 181 222 35 233 311 343 359 359 286 334 285 195 170 182 27 278 352 327 276
166 163 119 42 32 27 15 9 10 10 65 98 78 21 101 331 65 94 191 150 138 126 38 88 144 92 247 238 213 215 199 223 181 101 281 324 318 350 280 258 85 276 351 331 311 317 283
166 170 151 90 56 40 26 22 24 23 54 110 139 109 84 65 74 94 110 93 112 126 142 136 90 65 237 343 275 101 157 217 219 271 192 278 11 156 269 357 313 193 37 327 318 203 30
165 169 156 106 77 56 38 36 41 46 54 85 86 96 107 94 102 92 93 105 80 36 61 118 29 259 309 290 61 78 16 113 55 101 59 75 104 323 10 221 264 226 24 337 336 303 49
166 168 160 142 104 82 58 52 47 65 88 88 64 35 91 116 321 38 89 54 116 68 0 358 4 321 6 320 63 125 173 213 197 329 47 80 77 111 351 300 269 239 321 305 285 260 352
168 170 167 162 123 97 73 66 63 73 78 100 72 34 91 101 13 6 124 155 112 93 144 318 342 345 344 352 76 120 186 183 197 333 335 344 2 70 323 272 287 342 309 306 347 316 326
168 171 169 159 129 108 81 84 82 84 84 88 108 14 111 101 45 14 31 106 95 87 122 278 29 335 18 45 88 229 113 223 74 244 186 172 113 291 321 287 287 11 360 61 253 300 302
168 169 163 153 136 116 98 95 104 103 98 95 82 2 52 83 131 66 94 35 71 138 136 59 181 210 201 90 358 103 66 69 157 271 46 1 174 200 169 245 50 23 169 343 318 298 309